Race Coverage Navigation

TS # 42 / Blanchester, OH  2019

 


TS STATS
TS Distance 51.2 
Total Distance 2470.64 
Miles To Go 571.28 
TS Climbing 2449 
Total Climbing
TS  Elevation
TS  Net Elevation 3904 
Map Filename Open Map 
Directions Filename  
Latitude 39.29 
Longitude -83.99 
Google Map  TimeStation Map 


TS Arrival Data
Arr Ord  #/Name Arrival DT TS Dst Avg This TS Avg Overall
 1 377 - Christoph Strasser  06/18/2019 3:52 51.2  13.36  15.92 
 2 279 - Marko Baloh  06/19/2019 4:14 51.2  9.72  13.76 
 3 609 - Jakob Olsen  06/19/2019 9:54 51.2  7.66  13.32 
 4 617 - SOLO.kiwi (Craig Harper)  06/19/2019 23:23 51.2  11.17  12.41 
 5 329 - Peter Oyler  06/20/2019 1:53 51.2  9.97  12.27 
 6 367 - Daniela Genovesi  06/20/2019 3:43 51.2  8.98  12.13 
 7 T411 - team alpha - tischlerei groemmer  06/20/2019 4:42 51.2  19.44  22.59 
 8 T800 - Backstedt Racing Project 14  06/20/2019 5:12 51.2  18.85  22.52 
 9 416 - Leah Goldstein  06/20/2019 7:00 51.2  11.29  11.94 
 10 623 - Ultra Paka Racing Team (Daniel Polman)  06/20/2019 8:49 51.2  23.27  11.84 
 11 622 - Thomas Odom-Team Kyle Pease Foundation  06/20/2019 9:02 51.2  14.29  11.83 
 12 T404 - Gentlemen of speed  06/20/2019 11:14 51.2  19.95  21.3 
 13 611 - Marcelo Soares " MIXIRICA "  06/20/2019 12:19 51.2  14.42  11.65 
 14 T401 - Data Techniques powered by Networks Centre  06/20/2019 12:35 51.2  18.51  21.04 
 15 615 - Philipp Amhof  06/20/2019 13:31 51.2  14.29  11.58 
 16 612 - Markus K. Brandl  06/20/2019 13:34 51.2  8.96  11.58 
 17 603 - Alan Bradley  06/20/2019 16:13 51.2  13.24  11.45 
 18 T805 - Team Oceanside  06/20/2019 16:20 51.2  19.82  20.46 
 19 T807 - Team ZOE International  06/20/2019 17:14 51.2  20.08  20.31 
 20 T407 - Julian Becker   06/20/2019 17:46 51.2  18.18  20.17 
 21 T201 - EAT WELL  06/20/2019 18:32 51.2  17.66  20 
 22 T802 - Scorchers  06/20/2019 18:55 51.2  20.48  20.02 
 23 510 - John C. Tarlton  06/20/2019 20:37 51.2  8.21  11.22 
 24 T804 - Team FSHD Skyland Trail  06/20/2019 21:44 51.2  17.45  19.58 
 25 T416 - Team Rotary Raams Polio  06/20/2019 21:45 51.2  18.4  19.56 
 26 411 - Geoff Brunner  06/20/2019 21:55 51.2  12  11.16 
 27 559 - Team Martin RAAM 2019 (Martin Bergmeister)  06/20/2019 22:03 51.2  12.64  11.15 
 28 T408 - Radeln-fuer-Kinder (Cycling-for-Kids)  06/20/2019 23:14 51.2  17.96  19.31 
 29 529 - Isa Pulver  06/20/2019 23:28 51.2  12.75  11.06 
 30 T400 - Cantastic4  06/21/2019 1:32 51.2  14.42  18.95 
 31 442 - Joe Barr  06/21/2019 1:34 51.2  5.85  10.98 
 32 T808 - Antonia's Friends 2019  06/21/2019 1:57 51.2  16.88  18.96 
 33 T406 - Operation Walk Midwest  06/21/2019 3:37 51.2  15.92  18.67 
 34 T418 - The Opportunists  06/21/2019 5:07 51.2  17.07  18.49 
 35 568 - Alexandra Meixner  06/21/2019 7:44 51.2  5.79  10.66 
 36 610 - Kabir Rachure  06/21/2019 8:52 51.2  8.8  10.62 
 37 618 - GREGORY ROBINSON  06/21/2019 9:59 51.2  9.97  10.57 
 38 604 - Chieko Ozawa  06/21/2019 10:26 51.2  12.19  10.54 
 39 T410 - Soap-Aid  06/21/2019 11:08 51.2  17.26  17.67 
 40 T803 - Team EndoPark  06/21/2019 14:45 51.2  14.49  17.25 
 41 399 - Valerio Zamboni  06/21/2019 14:46 51.2  11.09  10.37 
 42 T414 - Brazil Nuts  06/21/2019 15:05 51.2  13.47  17.2 
 43 T202 - Integra Medical - BAA Racing  06/21/2019 16:33 51.2  14.7  16.98 
 44 T405 - High Rollers  06/21/2019 16:48 51.2  12.34  16.97 
 45 T415 - TEAM FIRE VELO 935  06/21/2019 17:05 51.2  15.36  16.96 
 46 T412 - Team Aspect  06/21/2019 17:57 51.2  8.42  16.85 
 47 T206 - Project Linear Acceleration  06/21/2019 20:04 51.2  15.52  16.59 
 48 T413 - TEAM BRASIL - SKIPPER  06/21/2019 20:06 51.2  14.99  16.61 
 49 T204 - Lucan CRC  06/21/2019 20:24 51.2  14.91  16.54 
 50 424 - Team i RON man Veterans supporting Veterans  06/21/2019 20:33 51.2  7.35  10.12 
 51 T402 - EA/WFP RAAM Team  06/21/2019 21:21 51.2  14.56  16.45 
 52 T200 - AIR RELAX GoPro TEAM BRASIL  06/21/2019 23:38 51.2  16.79  16.19 
 53 T801 - Mind Over Matter  06/22/2019 0:34 51.2  14.77  16.14 
 54 T806 - Team SuperMarrow  06/22/2019 0:48 51.2  12.29  16.13 
 55 161 - Seana Hogan  06/22/2019 2:10 51.2  11.01  9.88 
 56 T417 - Team4RAAM 2019 powered by TGW Living Logistics  06/22/2019 3:13 51.2  13.24  15.86 
 57 T403 - EKJ Denmark  06/22/2019 4:32 51.2  13.78  15.7 
 58 T409 - Serpentine Golden Girls  06/22/2019 16:57 51.2  11.01  14.56 
 59 T207 - Team Life Time  06/22/2019 22:24 51.2  13.3  14.1 
 60 T210 - Bike Wine Team  06/23/2019 1:29 51.2  13.41  13.85